Salt Lake City, UT

8:13 AM MDT on August 29, 2016 (GMT -0600)
Salt Lake City International

Weather History for KSLC - July, 2014

Change the Weather History Date:

Wednesday, July 9, 2014

  Actual Average Record
Temperature  
Mean Temperature 84 °F 78 °F  
Max Temperature 95 °F 92 °F 102 °F (1994)
Min Temperature 73 °F 64 °F 46 °F (1882)
Degree Days  
Heating Degree Days 0 0  
Month to date heating degree days 0 0  
Since 1 June heating degree days 39 46  
Since 1 July heating degree days 0 0  
Cooling Degree Days 19 13  
Month to date cooling degree days 162 106  
Year to date cooling degree days 404 343  
Since 1 June cooling degree days 342 293  
Growing Degree Days 33 (Base 50)    
Moisture  
Dew Point 47 °F    
Average Humidity 27    
Maximum Humidity 33    
Minimum Humidity 20    
Precipitation  
Precipitation 0.00 in 0.02 in 0.66 in (2001)
Month to date precipitation T 0.14  
Year to date precipitation 7.67 9.35  
Snow  
Snow 0.00 in 0.00 in - ()
Month to date snowfall 0.0 0.0  
Since 1 July snowfall 0.0 0.0  
Snow Depth 0.00 in    
Sea Level Pressure  
Sea Level Pressure 29.80 in    
Wind  
Wind Speed 8 mph (SSE)    
Max Wind Speed 23 mph    
Max Gust Speed 30 mph    
Visibility 10 miles    
Events Rain    
T = Trace of Precipitation, MM = Missing Value Source: NWS Daily Summary

Daily Weather History Graph

Daily Weather History Graph

Search for Another Location

Airport or City:

Trip Planner

Search our weather history database for the weather conditions in past years. The results will help you decide how hot, cold, wet, or windy it might be!

Date:

Astronomy

Jul. 09, 2014 Rise Set
Actual Time 6:05 AM MDT 9:00 PM MDT
Civil Twilight 5:32 AM MDT 9:33 PM MDT
Nautical Twilight 4:50 AM MDT 10:15 PM MDT
Astronomical Twilight 4:02 AM MDT 11:03 PM MDT
Moon 6:15 PM MDT (7/9) 3:26 AM MDT (7/9)
Length of Visible Light 16h 01m
Length of Day
14h 55m
Waxing Gibbous, 90% of the Moon is Illuminated
Jul 9
Waxing Gibbous
Jul 12
Full
Jul 18
Last Quarter
Jul 26
New
Aug 3
First Quarter

Hourly Weather History & Observations

Time (MDT) Temp. Heat Index Dew Point Humidity Pressure Visibility Wind Dir Wind Speed Gust Speed Precip Events Conditions
12:53 AM 75.9 °F - 41.0 °F 29% 29.80 in 10.0 mi ESE 5.8 mph - N/A   Scattered Clouds
1:53 AM 75.9 °F - 39.9 °F 27% 29.79 in 10.0 mi SE 3.5 mph - N/A   Scattered Clouds
2:53 AM 75.0 °F - 39.9 °F 28% 29.79 in 10.0 mi SE 8.1 mph - N/A   Scattered Clouds
3:53 AM 73.0 °F - 41.0 °F 31% 29.81 in 10.0 mi ESE 5.8 mph - N/A   Scattered Clouds
4:53 AM 73.9 °F - 41.0 °F 30% 29.81 in 10.0 mi ESE 8.1 mph - N/A   Mostly Cloudy
5:53 AM 75.9 °F - 45.0 °F 33% 29.81 in 10.0 mi SE 6.9 mph - N/A   Mostly Cloudy
6:53 AM 80.1 °F - 46.0 °F 30% 29.82 in 10.0 mi South 15.0 mph 24.2 mph N/A   Scattered Clouds
7:53 AM 81.0 °F - 48.0 °F 31% 29.83 in 10.0 mi South 16.1 mph 29.9 mph N/A   Scattered Clouds
8:53 AM 84.9 °F - 46.9 °F 27% 29.84 in 10.0 mi South 21.9 mph 28.8 mph N/A   Scattered Clouds
9:53 AM 87.1 °F - 48.0 °F 26% 29.84 in 10.0 mi South 17.3 mph - N/A   Scattered Clouds
10:53 AM 88.0 °F - 48.0 °F 25% 29.84 in 10.0 mi SSW 19.6 mph 24.2 mph N/A   Mostly Cloudy
11:53 AM 87.1 °F - 48.0 °F 26% 29.85 in 10.0 mi South 12.7 mph - N/A   Mostly Cloudy
12:53 PM 91.0 °F - 48.0 °F 23% 29.83 in 10.0 mi South 10.4 mph - N/A   Mostly Cloudy
1:53 PM 91.9 °F - 46.9 °F 21% 29.80 in 10.0 mi South 5.8 mph - N/A   Scattered Clouds
2:53 PM 93.0 °F - 44.1 °F 18% 29.77 in 10.0 mi Calm Calm - N/A   Scattered Clouds
3:53 PM 87.1 °F - 48.0 °F 26% 29.77 in 10.0 mi West 9.2 mph - N/A   Mostly Cloudy
4:53 PM 91.0 °F - 48.0 °F 23% 29.74 in 10.0 mi WNW 10.4 mph - N/A   Mostly Cloudy
5:53 PM 91.9 °F - 46.9 °F 21% 29.72 in 10.0 mi Variable 3.5 mph - N/A   Mostly Cloudy
6:23 PM 88.0 °F - 48.0 °F 25% 29.92 in 10.0 mi West 13.8 mph 20.7 mph N/A   Mostly Cloudy
6:53 PM 86.0 °F - 48.9 °F 28% 29.76 in 10.0 mi SE 16.1 mph 26.5 mph N/A   Mostly Cloudy
7:07 PM 86.0 °F - 48.9 °F 28% 29.94 in 10.0 mi South 16.1 mph 23.0 mph N/A   Mostly Cloudy
7:53 PM 84.0 °F - 50.0 °F 31% 29.76 in 10.0 mi SSE 13.8 mph 24.2 mph N/A   Mostly Cloudy
8:53 PM 82.9 °F - 51.1 °F 33% 29.77 in 10.0 mi South 17.3 mph - N/A   Mostly Cloudy
9:53 PM 80.1 °F 79.9 °F 53.1 °F 39% 29.76 in 10.0 mi South 19.6 mph 33.4 mph 0.00 in Rain Light Rain
10:53 PM 77.0 °F - 54.0 °F 45% 29.78 in 10.0 mi South 23.0 mph 32.2 mph 0.00 in Rain Light Rain
11:53 PM 71.1 °F - 62.1 °F 73% 29.82 in 10.0 mi SE 12.7 mph - 0.00 in Rain Light Rain